WIF773P SPZO-SLOR

Flight info

Callsign WIF773P
Flight time 1h 3m
Altitude 35000
Route ILMOX UV11 JUL UM657 PAZ UW6 ARPIS DCT OR977
Aircraft E170/M-SDE3GILORVW/S

Departure

Time 2026-04-24 20:41
Airport Alejandro Velasco Astete International Airport (SPZO)

Arrival

Time 2026-04-24 21:45
Airport Juan Mendoza International Airport (SLOR)
Time Latitude Longitude Altitude Speed Heading
2026-04-24 20:35 -13.53724 -71.94318 10836 ft 0 kts 250°
2026-04-24 20:37 -13.53721 -71.94309 10836 ft 2 kts 271°
2026-04-24 20:37 -13.53726 -71.94300 10836 ft 0 kts 342°
2026-04-24 20:37 -13.53719 -71.94302 10836 ft 3 kts 343°
2026-04-24 20:38 -13.53676 -71.94334 10836 ft 12 kts 304°
2026-04-24 20:38 -13.53660 -71.94432 10841 ft 13 kts 275°
2026-04-24 20:38 -13.53649 -71.94532 10846 ft 14 kts 276°
2026-04-24 20:38 -13.53637 -71.94643 10852 ft 17 kts 276°
2026-04-24 20:39 -13.53623 -71.94776 10859 ft 19 kts 276°
2026-04-24 20:39 -13.53608 -71.94916 10867 ft 20 kts 276°
2026-04-24 20:39 -13.53593 -71.95058 10876 ft 19 kts 276°
2026-04-24 20:39 -13.53578 -71.95189 10887 ft 17 kts 276°
2026-04-24 20:40 -13.53566 -71.95310 10894 ft 17 kts 276°
2026-04-24 20:40 -13.53547 -71.95428 10900 ft 15 kts 304°
2026-04-24 20:40 -13.53443 -71.95418 10895 ft 22 kts 52°
2026-04-24 20:40 -13.53439 -71.95180 10881 ft 59 kts 96°
2026-04-24 20:41 -13.53504 -71.94546 10847 ft 119 kts 95°
2026-04-24 20:41 -13.53609 -71.93507 10801 ft 168 kts 96°
2026-04-24 20:41 -13.53730 -71.92236 11081 ft 182 kts 95°
2026-04-24 20:41 -13.53863 -71.90942 11582 ft 191 kts 97°
2026-04-24 20:42 -13.54111 -71.89568 12090 ft 198 kts 105°
2026-04-24 20:42 -13.54500 -71.88200 12432 ft 211 kts 106°
2026-04-24 20:42 -13.55130 -71.86710 12479 ft 239 kts 112°
2026-04-24 20:42 -13.55775 -71.85036 12572 ft 264 kts 108°
2026-04-24 20:43 -13.56410 -71.83186 12648 ft 289 kts 109°
2026-04-24 20:43 -13.57167 -71.81166 12720 ft 313 kts 111°
2026-04-24 20:43 -13.58010 -71.79039 12987 ft 328 kts 111°
2026-04-24 20:43 -13.58881 -71.76849 13506 ft 333 kts 113°
2026-04-24 20:44 -13.60041 -71.74801 14155 ft 335 kts 121°
2026-04-24 20:44 -13.61309 -71.72790 14785 ft 335 kts 123°
2026-04-24 20:44 -13.62830 -71.70953 15346 ft 339 kts 132°
2026-04-24 20:44 -13.64444 -71.69177 15889 ft 341 kts 126°
2026-04-24 20:45 -13.65739 -71.67147 16414 ft 343 kts 120°
2026-04-24 20:45 -13.66992 -71.65053 16939 ft 346 kts 120°
2026-04-24 20:45 -13.68285 -71.62890 17437 ft 349 kts 120°
2026-04-24 20:45 -13.69324 -71.60634 17934 ft 350 kts 108°
2026-04-24 20:46 -13.70152 -71.58231 18457 ft 352 kts 109°
2026-04-24 20:46 -13.71365 -71.56004 18905 ft 356 kts 124°
2026-04-24 20:46 -13.72841 -71.53909 19351 ft 358 kts 124°
2026-04-24 20:46 -13.74308 -71.51836 19777 ft 359 kts 125°
2026-04-24 20:47 -13.76112 -71.49996 20155 ft 363 kts 140°
2026-04-24 20:47 -13.78121 -71.48414 20539 ft 365 kts 141°
2026-04-24 20:47 -13.80144 -71.46826 20900 ft 368 kts 141°
2026-04-24 20:47 -13.82203 -71.45212 21253 ft 371 kts 140°
2026-04-24 20:48 -13.84267 -71.43594 21600 ft 373 kts 141°
2026-04-24 20:48 -13.86330 -71.41977 21952 ft 375 kts 140°
2026-04-24 20:48 -13.88401 -71.40353 22299 ft 377 kts 140°
2026-04-24 20:48 -13.90535 -71.38681 22671 ft 378 kts 140°
2026-04-24 20:49 -13.92666 -71.37010 23036 ft 379 kts 140°
2026-04-24 20:49 -13.94774 -71.35357 23381 ft 381 kts 141°
2026-04-24 20:49 -13.96923 -71.33671 23720 ft 384 kts 140°
2026-04-24 20:49 -13.99072 -71.31985 24078 ft 386 kts 141°
2026-04-24 20:50 -14.01221 -71.30298 24435 ft 387 kts 141°
2026-04-24 20:50 -14.03386 -71.28599 24781 ft 389 kts 141°
2026-04-24 20:50 -14.05561 -71.26891 25111 ft 392 kts 141°
2026-04-24 20:50 -14.07755 -71.25168 25439 ft 394 kts 141°
2026-04-24 20:51 -14.09956 -71.23439 25748 ft 396 kts 141°
2026-04-24 20:51 -14.12153 -71.21712 26067 ft 398 kts 141°
2026-04-24 20:51 -14.14379 -71.19964 26385 ft 399 kts 141°
2026-04-24 20:51 -14.16570 -71.18241 26693 ft 401 kts 141°
2026-04-24 20:52 -14.18821 -71.16471 26996 ft 402 kts 141°
2026-04-24 20:52 -14.21065 -71.14706 27293 ft 404 kts 141°
2026-04-24 20:52 -14.23316 -71.12935 27592 ft 405 kts 141°
2026-04-24 20:52 -14.25582 -71.11152 27884 ft 406 kts 141°
2026-04-24 20:53 -14.27839 -71.09376 28168 ft 407 kts 141°
2026-04-24 20:53 -14.30092 -71.07601 28447 ft 408 kts 141°
2026-04-24 20:53 -14.32363 -71.05813 28702 ft 410 kts 141°
2026-04-24 20:53 -14.34660 -71.04003 28932 ft 413 kts 141°
2026-04-24 20:54 -14.36946 -71.02202 29177 ft 415 kts 141°
2026-04-24 20:54 -14.38951 -71.00622 29374 ft 417 kts 141°
2026-04-24 20:54 -14.43677 -70.96896 29843 ft 421 kts 141°
2026-04-24 20:55 -14.46241 -70.94873 30111 ft 423 kts 141°
2026-04-24 20:55 -14.48590 -70.93020 30340 ft 425 kts 141°
2026-04-24 20:55 -14.50931 -70.91172 30550 ft 427 kts 141°
2026-04-24 20:55 -14.53300 -70.89302 30755 ft 429 kts 141°
2026-04-24 20:56 -14.55670 -70.87431 30964 ft 431 kts 141°
2026-04-24 20:56 -14.58066 -70.85538 31167 ft 433 kts 141°
2026-04-24 20:56 -14.60465 -70.83643 31375 ft 434 kts 141°
2026-04-24 20:56 -14.62915 -70.81708 31577 ft 436 kts 141°
2026-04-24 20:57 -14.65306 -70.79819 31761 ft 438 kts 141°
2026-04-24 20:57 -14.67756 -70.77882 31949 ft 440 kts 141°
2026-04-24 20:57 -14.70234 -70.75924 32154 ft 441 kts 141°
2026-04-24 20:57 -14.72691 -70.73981 32388 ft 442 kts 141°
2026-04-24 20:58 -14.75147 -70.72038 32652 ft 442 kts 141°
2026-04-24 20:58 -14.77573 -70.70119 32931 ft 442 kts 141°
2026-04-24 20:58 -14.80025 -70.68179 33238 ft 441 kts 141°
2026-04-24 20:58 -14.82510 -70.66211 33547 ft 441 kts 141°
2026-04-24 20:59 -14.84940 -70.64288 33868 ft 440 kts 141°
2026-04-24 20:59 -14.87383 -70.62352 34180 ft 439 kts 141°
2026-04-24 20:59 -14.89792 -70.60443 34483 ft 439 kts 141°
2026-04-24 20:59 -14.92239 -70.58504 34795 ft 438 kts 141°
2026-04-24 21:00 -14.94646 -70.56596 35091 ft 438 kts 141°
2026-04-24 21:00 -14.97074 -70.54671 35401 ft 437 kts 141°
2026-04-24 21:00 -14.99507 -70.52741 35701 ft 437 kts 141°
2026-04-24 21:00 -15.01911 -70.50833 35978 ft 437 kts 141°
2026-04-24 21:01 -15.04319 -70.48922 36263 ft 436 kts 141°
2026-04-24 21:01 -15.06741 -70.46999 36532 ft 436 kts 141°
2026-04-24 21:01 -15.09169 -70.45071 36809 ft 436 kts 141°
2026-04-24 21:01 -15.11583 -70.43153 37053 ft 436 kts 141°
2026-04-24 21:02 -15.13973 -70.41254 37296 ft 436 kts 141°
2026-04-24 21:02 -15.16404 -70.39322 37521 ft 436 kts 141°
2026-04-24 21:02 -15.18813 -70.37406 37754 ft 436 kts 141°
2026-04-24 21:02 -15.21205 -70.35503 37998 ft 436 kts 141°
2026-04-24 21:03 -15.23633 -70.33572 38226 ft 436 kts 140°
2026-04-24 21:03 -15.26056 -70.31644 38429 ft 436 kts 140°
2026-04-24 21:03 -15.28460 -70.29730 38654 ft 436 kts 141°
2026-04-24 21:03 -15.30866 -70.27814 38863 ft 436 kts 140°
2026-04-24 21:04 -15.33261 -70.25907 39108 ft 436 kts 141°
2026-04-24 21:04 -15.35662 -70.23994 39366 ft 435 kts 141°
2026-04-24 21:04 -15.38074 -70.22071 39643 ft 434 kts 140°
2026-04-24 21:04 -15.40455 -70.20173 39904 ft 433 kts 140°
2026-04-24 21:05 -15.42865 -70.18251 40155 ft 432 kts 140°
2026-04-24 21:05 -15.45175 -70.16328 40407 ft 431 kts 135°
2026-04-24 21:05 -15.47187 -70.14066 40644 ft 428 kts 125°
2026-04-24 21:05 -15.48806 -70.11498 40852 ft 425 kts 117°
2026-04-24 21:06 -15.50249 -70.08802 41077 ft 425 kts 117°
2026-04-24 21:06 -15.51694 -70.06136 41301 ft 425 kts 117°
2026-04-24 21:06 -15.53132 -70.03492 41525 ft 424 kts 117°
2026-04-24 21:06 -15.54584 -70.00825 41698 ft 419 kts 117°
2026-04-24 21:07 -15.57449 -69.95557 41746 ft 423 kts 117°
2026-04-24 21:07 -15.60356 -69.90211 41778 ft 429 kts 117°
2026-04-24 21:08 -15.63302 -69.84789 41807 ft 434 kts 117°
2026-04-24 21:08 -15.66294 -69.79276 41834 ft 440 kts 117°
2026-04-24 21:09 -15.69319 -69.73701 41847 ft 446 kts 117°
2026-04-24 21:09 -15.72366 -69.68079 41838 ft 451 kts 117°
2026-04-24 21:10 -15.75444 -69.62398 41836 ft 450 kts 117°
2026-04-24 21:10 -15.78505 -69.56740 41834 ft 450 kts 118°
2026-04-24 21:11 -15.81569 -69.51074 41833 ft 450 kts 118°
2026-04-24 21:11 -15.84629 -69.45411 41827 ft 450 kts 117°
2026-04-24 21:12 -15.87181 -69.40686 41824 ft 449 kts 118°
2026-04-24 21:12 -15.90736 -69.34099 41835 ft 448 kts 117°
2026-04-24 21:13 -15.93815 -69.28427 41823 ft 448 kts 118°
2026-04-24 21:13 -15.96939 -69.22750 41812 ft 449 kts 118°
2026-04-24 21:14 -16.00038 -69.17112 41814 ft 449 kts 118°
2026-04-24 21:14 -16.03139 -69.11465 41811 ft 449 kts 118°
2026-04-24 21:15 -16.06213 -69.05863 41803 ft 449 kts 118°
2026-04-24 21:15 -16.09321 -69.00195 41805 ft 449 kts 118°
2026-04-24 21:16 -16.12412 -68.94553 41792 ft 449 kts 118°
2026-04-24 21:16 -16.15490 -68.88932 41784 ft 449 kts 118°
2026-04-24 21:17 -16.18574 -68.83294 41786 ft 448 kts 118°
2026-04-24 21:17 -16.21174 -68.78538 41776 ft 449 kts 118°
2026-04-24 21:18 -16.24786 -68.71923 41776 ft 449 kts 118°
2026-04-24 21:18 -16.27890 -68.66235 41773 ft 449 kts 118°
2026-04-24 21:19 -16.31006 -68.60522 41768 ft 450 kts 118°
2026-04-24 21:19 -16.34087 -68.54866 41773 ft 449 kts 118°
2026-04-24 21:20 -16.38714 -68.46365 41770 ft 449 kts 118°
2026-04-24 21:21 -16.41804 -68.40681 41718 ft 450 kts 118°
2026-04-24 21:21 -16.44875 -68.35030 41685 ft 450 kts 118°
2026-04-24 21:22 -16.47961 -68.29344 41680 ft 450 kts 118°
2026-04-24 21:22 -16.51406 -68.23917 41667 ft 452 kts 131°
2026-04-24 21:23 -16.56267 -68.19763 41668 ft 456 kts 146°
2026-04-24 21:23 -16.61592 -68.16119 41665 ft 455 kts 145°
2026-04-24 21:24 -16.66854 -68.12455 41688 ft 455 kts 145°
2026-04-24 21:24 -16.72122 -68.08780 41741 ft 455 kts 145°
2026-04-24 21:25 -16.77381 -68.05109 41744 ft 456 kts 145°
2026-04-24 21:25 -16.82654 -68.01425 41790 ft 456 kts 145°
2026-04-24 21:26 -16.87908 -67.97752 41788 ft 451 kts 145°
2026-04-24 21:26 -16.93122 -67.94105 41817 ft 450 kts 145°
2026-04-24 21:26 -16.95708 -67.92295 41537 ft 453 kts 145°
2026-04-24 21:27 -16.98324 -67.90464 41058 ft 451 kts 145°
2026-04-24 21:27 -17.00949 -67.88625 40522 ft 451 kts 145°
2026-04-24 21:27 -17.03530 -67.86816 40067 ft 451 kts 145°
2026-04-24 21:27 -17.06163 -67.84972 39561 ft 452 kts 145°
2026-04-24 21:28 -17.08760 -67.83151 39050 ft 453 kts 145°
2026-04-24 21:28 -17.11410 -67.81292 38546 ft 454 kts 145°
2026-04-24 21:28 -17.14027 -67.79457 38059 ft 455 kts 144°
2026-04-24 21:28 -17.16646 -67.77619 37573 ft 455 kts 144°
2026-04-24 21:29 -17.19257 -67.75786 37067 ft 455 kts 144°
2026-04-24 21:29 -17.21912 -67.73921 36552 ft 455 kts 144°
2026-04-24 21:29 -17.24535 -67.72079 36066 ft 455 kts 144°
2026-04-24 21:29 -17.27159 -67.70245 35552 ft 456 kts 147°
2026-04-24 21:30 -17.29960 -67.68649 35050 ft 458 kts 151°
2026-04-24 21:30 -17.32777 -67.67134 34535 ft 459 kts 151°
2026-04-24 21:30 -17.35625 -67.65598 34028 ft 460 kts 151°
2026-04-24 21:30 -17.38487 -67.64053 33516 ft 461 kts 151°
2026-04-24 21:31 -17.41326 -67.62520 33012 ft 462 kts 150°
2026-04-24 21:31 -17.44184 -67.60975 32524 ft 463 kts 150°
2026-04-24 21:31 -17.47041 -67.59431 31997 ft 461 kts 150°
2026-04-24 21:31 -17.49886 -67.57893 31490 ft 456 kts 150°
2026-04-24 21:32 -17.52685 -67.56378 30995 ft 452 kts 150°
2026-04-24 21:32 -17.55488 -67.54861 30500 ft 449 kts 150°
2026-04-24 21:32 -17.58252 -67.53364 30003 ft 446 kts 150°
2026-04-24 21:32 -17.61006 -67.51872 29517 ft 443 kts 150°
2026-04-24 21:33 -17.63726 -67.50399 29031 ft 439 kts 150°
2026-04-24 21:33 -17.65506 -67.49435 28707 ft 437 kts 150°
2026-04-24 21:33 -17.69109 -67.47482 28081 ft 433 kts 151°
2026-04-24 21:33 -17.71789 -67.46028 27607 ft 430 kts 150°
2026-04-24 21:34 -17.74422 -67.44599 27140 ft 427 kts 151°
2026-04-24 21:34 -17.77081 -67.43156 26204 ft 433 kts 151°
2026-04-24 21:34 -17.79711 -67.41730 25701 ft 418 kts 151°
2026-04-24 21:34 -17.82253 -67.40349 25218 ft 412 kts 151°
2026-04-24 21:35 -17.84797 -67.38967 24777 ft 411 kts 151°
2026-04-24 21:35 -17.87360 -67.37574 24317 ft 411 kts 151°
2026-04-24 21:35 -17.89897 -67.36195 23833 ft 408 kts 151°
2026-04-24 21:35 -17.92421 -67.34822 23394 ft 406 kts 151°
2026-04-24 21:36 -17.94920 -67.33463 22930 ft 402 kts 151°
2026-04-24 21:36 -17.97382 -67.32124 22475 ft 399 kts 151°
2026-04-24 21:36 -17.99852 -67.30779 22050 ft 396 kts 151°
2026-04-24 21:36 -18.02296 -67.29449 21629 ft 394 kts 151°
2026-04-24 21:37 -18.04726 -67.28125 21166 ft 392 kts 151°
2026-04-24 21:37 -18.07128 -67.26817 20766 ft 387 kts 152°
2026-04-24 21:37 -18.09522 -67.25513 20344 ft 384 kts 152°
2026-04-24 21:37 -18.11851 -67.24242 19902 ft 373 kts 152°
2026-04-24 21:38 -18.14104 -67.23014 19496 ft 360 kts 152°
2026-04-24 21:38 -18.16204 -67.21663 19045 ft 340 kts 134°
2026-04-24 21:38 -18.17375 -67.19724 18849 ft 298 kts 105°
2026-04-24 21:38 -18.17633 -67.17676 18417 ft 276 kts 91°
2026-04-24 21:39 -18.17487 -67.15717 17747 ft 267 kts 82°
2026-04-24 21:39 -18.17145 -67.13872 17276 ft 251 kts 77°
2026-04-24 21:39 -18.16739 -67.12179 17025 ft 222 kts 75°
2026-04-24 21:39 -18.16341 -67.10683 16669 ft 207 kts 73°
2026-04-24 21:40 -18.15866 -67.09343 16205 ft 188 kts 51°
2026-04-24 21:40 -18.14859 -67.08693 15922 ft 161 kts
2026-04-24 21:40 -18.13792 -67.08556 15642 ft 150 kts
2026-04-24 21:40 -18.12763 -67.08459 15427 ft 148 kts
2026-04-24 21:41 -18.11715 -67.08376 15263 ft 150 kts
2026-04-24 21:41 -18.10674 -67.08305 15070 ft 151 kts
2026-04-24 21:41 -18.09618 -67.08240 14846 ft 149 kts
2026-04-24 21:41 -18.08589 -67.08181 14622 ft 148 kts
2026-04-24 21:42 -18.07564 -67.08125 14397 ft 146 kts
2026-04-24 21:42 -18.06562 -67.08073 14193 ft 144 kts
2026-04-24 21:42 -18.05560 -67.08024 14003 ft 143 kts
2026-04-24 21:42 -18.04573 -67.07980 13815 ft 143 kts
2026-04-24 21:43 -18.03571 -67.07936 13620 ft 142 kts
2026-04-24 21:43 -18.02577 -67.07893 13420 ft 142 kts
2026-04-24 21:43 -18.01583 -67.07851 13218 ft 141 kts
2026-04-24 21:43 -18.00597 -67.07815 13007 ft 141 kts
2026-04-24 21:44 -17.99605 -67.07774 12813 ft 140 kts
2026-04-24 21:44 -17.98631 -67.07722 12595 ft 141 kts
2026-04-24 21:44 -17.97635 -67.07677 12341 ft 142 kts
2026-04-24 21:44 -17.96677 -67.07636 12198 ft 134 kts
2026-04-24 21:45 -17.95905 -67.07598 12195 ft 77 kts
2026-04-24 21:45 -17.95597 -67.07585 12195 ft 12 kts
2026-04-24 21:45 -17.95530 -67.07577 12195 ft 5 kts 270°
2026-04-24 21:45 -17.95579 -67.07586 12195 ft 9 kts 181°
2026-04-24 21:46 -17.95687 -67.07589 12195 ft 21 kts 182°
2026-04-24 21:46 -17.95862 -67.07596 12195 ft 27 kts 181°
2026-04-24 21:46 -17.96019 -67.07604 12195 ft 9 kts 191°
2026-04-24 21:46 -17.96051 -67.07655 12195 ft 9 kts 271°
2026-04-24 21:47 -17.96048 -67.07722 12194 ft 9 kts 269°
2026-04-24 21:47 -17.96065 -67.07764 12194 ft 9 kts 219°
2026-04-24 21:47 -17.96165 -67.07774 12194 ft 11 kts 182°
2026-04-24 21:47 -17.96205 -67.07787 12194 ft 5 kts 242°
2026-04-24 21:48 -17.96205 -67.07819 12194 ft 0 kts 272°
2026-04-24 21:48 -17.96205 -67.07818 12194 ft 0 kts 272°